G6FJI-13 Weather Reports


time (UTC)temp
C
wind
direction
speed
KPH
gust
KPH
rain 1hr
cm
rain 24hr
cm
rain mn
cm
humidity
%
barometer
mb
20260506031937 7 160 1.6 1.6 0.00 0.00 0.00 81 1016.7
20260506031022 7 160 3.2 3.2 0.00 0.00 0.00 81 1016.6
20260506025958 8 168 1.6 3.2 0.00 0.00 0.00 80 1016.7
20260506025043 8 139 3.2 8.0 0.00 0.00 0.00 81 1016.6
20260506023939 8 169 1.6 1.6 0.00 0.00 0.00 81 1016.7
20260506022935 8 139 1.6 4.8 0.00 0.00 0.00 81 1016.7
20260506021946 8 165 0.0 1.6 0.00 0.00 0.00 84 1016.6
20260506020900 8 0.0 3.2 0.00 0.00 0.00 84 1016.6
20260506015925 8 0.0 1.6 0.00 0.00 0.00 83 1016.7
20260506014901 8 148 0.0 1.6 0.00 0.00 0.00 83 1016.5
20260506013824 8 139 1.6 3.2 0.00 0.00 0.00 82 1016.6
20260506012822 8 146 1.6 1.6 0.00 0.00 0.00 81 1016.6
20260506011738 8 180 3.2 3.2 0.00 0.00 0.00 81 1016.8
20260506010843 8 150 0.0 1.6 0.00 0.00 0.00 80 1017.1
20260506005739 8 166 0.0 4.8 0.00 0.00 0.00 79 1016.6
20260506004824 8 195 1.6 4.8 0.00 0.00 0.00 79 1016.8
20260506003740 8 142 3.2 4.8 0.00 0.00 0.00 79 1016.7
20260506002824 9 166 1.6 1.6 0.00 0.00 0.00 81 1016.7
20260506001740 9 186 1.6 3.2 0.00 0.00 0.00 81 1016.7
20260506000825 9 202 4.8 4.8 0.00 0.00 0.00 81 1016.6
20260505235741 10 175 3.2 4.8 0.00 0.00 0.00 82 1016.7
20260505234826 10 161 0.0 1.6 0.00 0.00 0.00 83 1016.7
20260505233742 10 186 1.6 3.2 0.00 0.00 0.00 82 1016.8
20260505232827 10 173 1.6 3.2 0.00 0.00 0.00 82 1016.7
20260505231743 10 166 1.6 3.2 0.00 0.00 0.00 81 1016.7
20260505230727 10 160 3.2 3.2 0.00 0.00 0.00 82 1016.8
20260505225643 10 174 1.6 1.6 0.00 0.00 0.00 82 1016.6
20260505224728 10 70 0.0 3.2 0.00 0.00 0.00 81 1016.4
20260505223645 10 187 1.6 3.2 0.00 0.00 0.00 80 1016.8
20260505222809 10 186 1.6 4.8 0.00 0.00 0.00 79 1016.9
20260505221645 10 51 1.6 3.2 0.00 0.00 0.00 79 1016.7
20260505220750 10 51 1.6 3.2 0.00 0.00 0.00 78 1016.7
20260505215707 11 50 3.2 8.0 0.00 0.00 0.00 77 1016.3
20260505214730 11 167 1.6 4.8 0.00 0.00 0.00 76 1016.7
20260505213647 11 145 3.2 4.8 0.00 0.00 0.00 76 1016.4
20260505212731 11 163 1.6 3.2 0.00 0.00 0.00 77 1016.5
20260505211708 11 172 1.6 3.2 0.00 0.00 0.00 77 1016.3
20260505210604 11 147 4.8 4.8 0.00 0.00 0.00 76 1016.2
20260505205533 12 178 1.6 3.2 0.00 0.00 0.00 76 1015.9
20260505204625 12 147 1.6 3.2 0.00 0.00 0.00 74 1016.0
20260505203534 12 154 0.0 1.6 0.00 0.00 0.00 72 1015.8
20260505202626 12 155 0.0 1.6 0.00 0.00 0.00 71 1015.8
20260505201555 12 147 0.0 1.6 0.00 0.00 0.00 70 1015.7
20260505200607 12 165 1.6 3.2 0.00 0.00 0.00 70 1015.8
20260505195536 12 152 1.6 1.6 0.00 0.00 0.00 70 1015.9
20260505194607 12 138 1.6 3.2 0.00 0.00 0.00 68 1015.6
20260505193536 12 133 0.0 3.2 0.00 0.00 0.00 70 1015.5
20260505192628 12 136 1.6 1.6 0.00 0.00 0.00 71 1015.4
20260505191537 13 152 0.0 3.2 0.00 0.00 0.00 69 1015.4
20260505190610 13 157 0.0 1.6 0.00 0.00 0.00 69 1015.4
20260505185537 13 156 1.6 3.2 0.00 0.00 0.00 68 1015.3
20260505184610 13 113 1.6 1.6 0.00 0.00 0.00 68 1015.1
20260505183539 13 99 1.6 1.6 0.00 0.00 0.00 68 1015.1
20260505182611 13 136 3.2 3.2 0.00 0.00 0.00 68 1015.3
20260505181539 13 131 1.6 1.6 0.00 0.00 0.00 68 1015.1
20260505180612 13 153 1.6 4.8 0.00 0.00 0.00 67 1015.1
20260505175541 13 143 1.6 3.2 0.00 0.00 0.00 68 1015.0
20260505174612 13 156 1.6 3.2 0.00 0.00 0.00 67 1015.3
20260505173541 13 173 1.6 1.6 0.00 0.00 0.00 66 1015.2
20260505172613 14 136 1.6 8.0 0.00 0.00 0.00 68 1015.2
20260505171542 14 131 1.6 4.8 0.00 0.00 0.00 67 1015.2
20260505170614 14 119 1.6 4.8 0.00 0.00 0.00 67 1015.2
20260505165604 14 132 1.6 4.8 0.00 0.00 0.00 67 1015.6
20260505164443 14 135 1.6 8.0 0.00 0.00 0.00 66 1015.2
20260505163359 14 103 4.8 4.8 0.00 0.00 0.00 67 1015.4
20260505162412 14 161 1.6 4.8 0.00 0.00 0.00 67 1015.3
20260505161401 14 112 1.6 4.8 0.00 0.00 0.00 66 1015.3
20260505160413 14 114 4.8 9.7 0.00 0.00 0.00 66 1015.2
20260505153342 15 212 4.8 4.8 0.00 0.00 0.00 64 1015.4
20260505152259 15 137 1.6 4.8 0.00 0.00 0.00 65 1015.4
20260505151418 15 133 1.6 3.2 0.00 0.00 0.00 63 1015.4
20260505150238 15 116 3.2 8.0 0.00 0.00 0.00 65 1015.3
20260505140213 15 131 0.0 1.6 0.00 0.00 0.00 63 1015.7
20260505130116 15 181 1.6 3.2 0.00 0.00 0.00 64 1015.9
20260505124118 15 187 1.6 3.2 0.00 0.00 0.00 66 1015.6
20260505123045 15 167 0.0 3.2 0.00 0.00 0.00 64 1015.8
20260505121946 15 147 1.6 3.2 0.00 0.00 0.00 66 1016.0
20260505121019 15 147 3.2 4.8 0.00 0.00 0.00 64 1015.8
20260505120027 16 140 1.6 3.2 0.00 0.00 0.00 63 1015.9
20260505115020 16 0.0 1.6 0.00 0.00 0.00 64 1015.8
20260505113948 15 134 1.6 4.8 0.00 0.00 0.00 69 1015.9
20260505112925 14 195 1.6 8.0 0.00 0.00 0.00 68 1016.0
20260505111821 15 128 1.6 3.2 0.00 0.00 0.00 68 1016.3
20260505110905 15 194 3.2 4.8 0.00 0.00 0.00 67 1016.1
20260505101843 13 192 4.8 8.0 0.00 0.00 0.00 73 1016.7
20260505100907 13 168 1.6 3.2 0.00 0.00 0.00 74 1016.5
20260505095824 13 0.0 1.6 0.00 0.00 0.00 77 1016.6
20260505094909 13 154 1.6 3.2 0.00 0.00 0.00 76 1016.6
20260505093825 12 186 1.6 1.6 0.00 0.00 0.00 78 1016.7
20260505092929 12 170 0.0 3.2 0.00 0.00 0.00 78 1016.5
20260505091847 12 100 1.6 1.6 0.00 0.00 0.00 79 1016.6
20260505090910 12 170 1.6 3.2 0.00 0.00 0.00 78 1016.7
20260505085827 13 172 0.0 3.2 0.00 0.00 0.00 76 1016.7
20260505084910 12 131 0.0 1.6 0.00 0.00 0.00 78 1016.6
20260505083828 12 157 3.2 3.2 0.00 0.00 0.00 79 1016.7
20260505082911 11 141 3.2 8.0 0.00 0.00 0.00 81 1016.9
20260505081828 11 124 3.2 3.2 0.00 0.00 0.00 80 1017.0
20260505080756 11 134 1.6 9.7 0.00 0.00 0.00 80 1016.9
20260505075728 11 139 1.6 4.8 0.00 0.00 0.00 82 1017.0
20260505074813 10 150 1.6 3.2 0.00 0.00 0.00 84 1016.9
20260505073730 10 0.0 1.6 0.00 0.00 0.00 87 1016.8
20260505072813 9 139 0.0 3.2 0.00 0.00 0.00 88 1016.9
20260505071730 9 136 1.6 1.6 0.00 0.00 0.00 89 1016.9
20260505070814 8 133 1.6 3.2 0.00 0.00 0.00 90 1016.9
20260505065731 8 119 0.0 3.2 0.00 0.00 0.00 93 1016.9
20260505064816 8 0.0 1.6 0.00 0.00 0.00 94 1017.0
20260505063732 8 142 0.0 1.6 0.00 0.00 0.00 96 1017.0
20260505062816 8 113 3.2 3.2 0.00 0.00 0.00 97 1017.0
20260505061733 8 0.0 1.6 0.00 0.00 0.00 98 1017.1
20260505060818 8 0.0 0.0 0.00 0.00 0.00 98 1017.0
20260505055734 7 0.0 0.0 0.00 0.00 0.00 98 1017.2
20260505054703 7 0.0 0.0 0.00 0.00 0.00 98 1017.4
20260505053636 7 0.0 0.0 0.00 0.00 0.00 98 1017.3
20260505052739 7 0.0 0.0 0.00 0.00 0.00 98 1017.4
20260505051735 7 0.0 0.0 0.00 0.00 0.00 98 1017.2
20260505050720 7 0.0 0.0 0.00 0.00 0.00 98 1017.4
20260505041606 7 312 0.0 1.6 0.00 0.00 0.00 98 1017.3
20260505040522 7 289 0.0 1.6 0.00 0.00 0.00 98 1017.2
20260505035647 6 0.0 0.0 0.00 0.00 0.00 98 1017.1
20260505034523 6 0.0 0.0 0.00 0.00 0.00 97 1017.0
20260505033627 6 0.0 0.0 0.00 0.00 0.00 97 1016.9
20260505032524 6 0.0 0.0 0.00 0.00 0.00 97 1016.9